Time,TemperatureF,DewpointF,PressureIn,WindDirection,WindDirectionDegrees,WindSpeedMPH,WindSpeedGustMPH,Humidity,HourlyPrecipIn,Conditions,Clouds,dailyrainin,SoftwareType,DateUTC
2014-04-18 00:01:00,47.6,36.0,30.23,SSW,210,0.0,0.0,64,0.00,,OVC020,0.00,VWS V14.01,2014-04-18 04:01:00,
2014-04-18 00:02:00,47.6,36.4,30.23,SSW,210,0.0,0.0,65,0.00,,OVC020,0.00,VWS V14.01,2014-04-18 04:02:00,
2014-04-18 00:03:00,47.5,36.3,30.23,SSW,210,0.0,0.0,65,0.00,,OVC020,0.00,VWS V14.01,2014-04-18 04:03:00,
2014-04-18 00:04:00,47.4,36.2,30.23,SSW,210,0.0,0.0,65,0.00,,OVC020,0.00,VWS V14.01,2014-04-18 04:04:00,
2014-04-18 00:09:00,47.3,36.2,30.23,SSW,210,0.0,0.0,65,0.00,,OVC020,0.00,VWS V14.01,2014-04-18 04:09:00,
2014-04-18 00:14:00,47.2,37.6,30.23,SSW,210,0.0,0.0,69,0.00,,OVC020,0.00,VWS V14.01,2014-04-18 04:14:00,
2014-04-18 00:20:00,46.9,36.5,30.23,SSW,210,0.0,0.0,67,0.00,,OVC020,0.00,VWS V14.01,2014-04-18 04:20:00,
2014-04-18 00:25:00,46.6,36.6,30.23,SSW,210,0.0,0.0,68,0.00,,OVC020,0.00,VWS V14.01,2014-04-18 04:25:00,
2014-04-18 00:30:00,46.4,36.4,30.23,SSW,210,0.0,0.0,68,0.00,,OVC020,0.00,VWS V14.01,2014-04-18 04:30:00,
2014-04-18 00:35:00,46.1,36.5,30.23,SSW,210,0.0,0.0,69,0.00,,OVC020,0.00,VWS V14.01,2014-04-18 04:35:00,
2014-04-18 00:40:00,46.0,37.1,30.23,SSW,210,0.0,0.0,71,0.00,,OVC020,0.00,VWS V14.01,2014-04-18 04:40:00,
2014-04-18 00:45:00,45.7,37.2,30.23,SSW,210,0.0,0.0,72,0.00,,OVC020,0.00,VWS V14.01,2014-04-18 04:45:00,
2014-04-18 00:50:00,45.5,36.7,30.23,SSW,210,0.0,0.0,71,0.00,,OVC024,0.00,VWS V14.01,2014-04-18 04:50:00,
2014-04-18 00:55:00,45.4,36.6,30.23,SSW,210,0.0,0.0,71,0.00,,OVC024,0.00,VWS V14.01,2014-04-18 04:55:00,
2014-04-18 01:00:00,45.2,36.7,30.23,SSW,210,0.0,0.0,72,0.00,,OVC024,0.00,VWS V14.01,2014-04-18 05:00:00,
2014-04-18 01:05:00,45.1,36.6,30.23,SSW,210,0.0,0.0,72,0.00,,OVC024,0.00,VWS V14.01,2014-04-18 05:05:00,
2014-04-18 01:10:00,45.0,37.2,30.23,SSW,210,0.0,0.0,74,0.00,,OVC024,0.00,VWS V14.01,2014-04-18 05:10:00,
2014-04-18 01:16:00,45.1,37.0,30.23,SSW,210,0.0,0.0,73,0.00,,OVC024,0.00,VWS V14.01,2014-04-18 05:16:00,
2014-04-18 01:21:00,45.1,37.0,30.23,SSW,210,0.0,0.0,73,0.00,,OVC024,0.00,VWS V14.01,2014-04-18 05:21:00,
2014-04-18 01:26:00,45.1,36.6,30.23,SSW,210,0.0,0.0,72,0.00,,OVC024,0.00,VWS V14.01,2014-04-18 05:26:00,
2014-04-18 01:31:00,45.1,37.0,30.23,SSW,210,0.0,0.0,73,0.00,,OVC024,0.00,VWS V14.01,2014-04-18 05:31:00,
2014-04-18 01:36:00,44.9,36.8,30.22,SSW,210,0.0,0.0,73,0.00,,OVC024,0.00,VWS V14.01,2014-04-18 05:36:00,
2014-04-18 01:41:00,44.7,36.2,30.22,SSW,210,0.0,0.0,72,0.00,,OVC024,0.00,VWS V14.01,2014-04-18 05:41:00,
2014-04-18 01:46:00,44.6,36.2,30.23,SSW,210,0.0,0.0,72,0.00,,OVC022,0.00,VWS V14.01,2014-04-18 05:46:00,
2014-04-18 01:51:00,44.4,36.0,30.22,SSW,210,0.0,0.0,72,0.00,,OVC022,0.00,VWS V14.01,2014-04-18 05:51:00,
2014-04-18 01:56:00,44.4,36.0,30.22,SSW,210,0.0,0.0,72,0.00,,OVC022,0.00,VWS V14.01,2014-04-18 05:56:00,
2014-04-18 02:01:00,44.6,35.8,30.22,SSW,210,0.0,0.0,71,0.00,,OVC022,0.00,VWS V14.01,2014-04-18 06:01:00,
2014-04-18 02:06:00,44.7,36.9,30.21,SSW,210,0.0,0.0,74,0.00,,OVC022,0.00,VWS V14.01,2014-04-18 06:06:00,
2014-04-18 02:11:00,44.6,36.2,30.21,SSW,210,0.0,0.0,72,0.00,,OVC022,0.00,VWS V14.01,2014-04-18 06:11:00,
2014-04-18 02:16:00,44.5,36.0,30.21,SSW,210,0.0,0.0,72,0.00,,OVC022,0.00,VWS V14.01,2014-04-18 06:16:00,
2014-04-18 02:22:00,44.5,36.4,30.21,SSW,210,0.0,0.0,73,0.00,,OVC022,0.00,VWS V14.01,2014-04-18 06:22:00,
2014-04-18 02:27:00,44.3,35.9,30.21,SSW,210,0.0,0.0,72,0.00,,OVC022,0.00,VWS V14.01,2014-04-18 06:27:00,
2014-04-18 02:32:00,44.2,35.8,30.21,SSW,210,0.0,0.0,72,0.00,,OVC022,0.00,VWS V14.01,2014-04-18 06:32:00,
2014-04-18 02:37:00,44.2,35.8,30.21,SSW,210,0.0,0.0,72,0.00,,OVC022,0.00,VWS V14.01,2014-04-18 06:37:00,
2014-04-18 02:42:00,44.2,35.8,30.21,SSW,210,0.0,0.0,72,0.00,,OVC022,0.00,VWS V14.01,2014-04-18 06:42:00,
2014-04-18 02:47:00,44.3,35.5,30.21,SSW,210,0.0,0.0,71,0.00,,OVC021,0.00,VWS V14.01,2014-04-18 06:47:00,
2014-04-18 02:52:00,44.5,35.7,30.21,SSW,210,0.0,0.0,71,0.00,,OVC021,0.00,VWS V14.01,2014-04-18 06:52:00,
2014-04-18 02:57:00,44.5,36.0,30.20,SSW,210,0.0,0.0,72,0.00,,OVC021,0.00,VWS V14.01,2014-04-18 06:57:00,
2014-04-18 03:02:00,44.3,35.9,30.20,SSW,210,0.0,0.0,72,0.00,,OVC021,0.00,VWS V14.01,2014-04-18 07:02:00,
2014-04-18 03:07:00,44.3,36.2,30.20,SSW,210,0.0,0.0,73,0.00,,OVC021,0.00,VWS V14.01,2014-04-18 07:07:00,
2014-04-18 03:12:00,44.1,35.7,30.21,SSW,210,0.0,0.0,72,0.00,,OVC021,0.00,VWS V14.01,2014-04-18 07:12:00,
2014-04-18 03:18:00,44.0,35.6,30.20,SSW,210,0.0,0.0,72,0.00,,OVC021,0.00,VWS V14.01,2014-04-18 07:18:00,
2014-04-18 03:23:00,43.8,35.7,30.20,SSW,210,0.0,0.0,73,0.00,,OVC021,0.00,VWS V14.01,2014-04-18 07:23:00,
2014-04-18 03:28:00,43.7,36.0,30.20,SSW,210,0.0,0.0,74,0.00,,OVC021,0.00,VWS V14.01,2014-04-18 07:28:00,
2014-04-18 03:33:00,43.7,35.6,30.20,SSW,210,0.0,0.0,73,0.00,,OVC021,0.00,VWS V14.01,2014-04-18 07:33:00,
2014-04-18 03:38:00,43.7,35.6,30.20,SSW,210,0.0,0.0,73,0.00,,OVC021,0.00,VWS V14.01,2014-04-18 07:38:00,
2014-04-18 03:43:00,43.6,35.5,30.20,SSW,210,0.0,0.0,73,0.00,,OVC021,0.00,VWS V14.01,2014-04-18 07:43:00,
2014-04-18 03:48:00,43.5,35.4,30.20,SSW,210,0.0,0.0,73,0.00,,OVC022,0.00,VWS V14.01,2014-04-18 07:48:00,
2014-04-18 03:53:00,43.5,35.4,30.20,SSW,210,0.0,0.0,73,0.00,,OVC022,0.00,VWS V14.01,2014-04-18 07:53:00,
2014-04-18 03:58:00,43.6,35.9,30.20,SSW,210,0.0,0.0,74,0.00,,OVC022,0.00,VWS V14.01,2014-04-18 07:58:00,
2014-04-18 04:03:00,43.7,36.0,30.21,SSW,210,0.0,0.0,74,0.00,,OVC022,0.00,VWS V14.01,2014-04-18 08:03:00,
2014-04-18 04:08:00,43.8,36.7,30.21,SSW,210,0.0,0.0,76,0.00,,OVC022,0.00,VWS V14.01,2014-04-18 08:08:00,
2014-04-18 04:14:00,43.7,36.3,30.21,SSW,210,0.0,0.0,75,0.00,,OVC022,0.00,VWS V14.01,2014-04-18 08:14:00,
2014-04-18 04:19:00,43.6,36.5,30.21,SSW,210,0.0,0.0,76,0.00,,OVC022,0.00,VWS V14.01,2014-04-18 08:19:00,
2014-04-18 04:24:00,43.5,36.1,30.21,SSW,210,0.0,0.0,75,0.00,,OVC022,0.00,VWS V14.01,2014-04-18 08:24:00,
2014-04-18 04:29:00,43.5,36.5,30.21,SSW,210,0.0,0.0,76,0.00,,OVC022,0.00,VWS V14.01,2014-04-18 08:29:00,
2014-04-18 04:34:00,43.4,36.0,30.21,SSW,210,0.0,0.0,75,0.00,,OVC022,0.00,VWS V14.01,2014-04-18 08:34:00,
2014-04-18 04:39:00,43.5,36.5,30.21,SSW,210,0.0,0.0,76,0.00,,OVC022,0.00,VWS V14.01,2014-04-18 08:39:00,
2014-04-18 04:44:00,43.6,36.2,30.21,SSW,210,0.0,0.0,75,0.00,,OVC022,0.00,VWS V14.01,2014-04-18 08:44:00,
2014-04-18 04:49:00,43.6,36.2,30.21,SSW,210,0.0,0.0,75,0.00,,OVC021,0.00,VWS V14.01,2014-04-18 08:49:00,
2014-04-18 04:54:00,43.6,36.2,30.22,SSW,210,0.0,0.0,75,0.00,,OVC021,0.00,VWS V14.01,2014-04-18 08:54:00,
2014-04-18 04:59:00,43.7,36.3,30.22,SSW,210,0.0,0.0,75,0.00,,OVC021,0.00,VWS V14.01,2014-04-18 08:59:00,
2014-04-18 05:04:00,43.6,36.2,30.22,SSW,210,0.0,0.0,75,0.00,,OVC021,0.00,VWS V14.01,2014-04-18 09:04:00,
2014-04-18 05:10:00,43.6,36.2,30.22,SSW,210,0.0,0.0,75,0.00,,OVC021,0.00,VWS V14.01,2014-04-18 09:10:00,
2014-04-18 05:15:00,43.6,36.2,30.22,SSW,210,0.0,0.0,75,0.00,,OVC021,0.00,VWS V14.01,2014-04-18 09:15:00,
2014-04-18 05:20:00,43.7,37.6,30.22,SSW,210,0.0,0.0,79,0.00,,OVC021,0.00,VWS V14.01,2014-04-18 09:20:00,
2014-04-18 05:25:00,43.7,37.6,30.22,SSW,210,0.0,0.0,79,0.00,,OVC021,0.00,VWS V14.01,2014-04-18 09:25:00,
2014-04-18 05:30:00,43.8,38.4,30.22,SSW,210,0.0,0.0,81,0.00,,OVC021,0.00,VWS V14.01,2014-04-18 09:30:00,
2014-04-18 05:35:00,43.7,37.3,30.22,SSW,210,0.0,0.0,78,0.00,,OVC021,0.00,VWS V14.01,2014-04-18 09:35:00,
2014-04-18 05:40:00,43.6,36.5,30.22,SSW,210,0.0,0.0,76,0.00,,OVC021,0.00,VWS V14.01,2014-04-18 09:40:00,
2014-04-18 05:45:00,43.6,36.9,30.22,SSW,210,0.0,0.0,77,0.00,,OVC021,0.00,VWS V14.01,2014-04-18 09:45:00,
2014-04-18 05:50:00,43.7,37.0,30.22,SSW,210,0.0,0.0,77,0.00,,OVC020,0.00,VWS V14.01,2014-04-18 09:50:00,
2014-04-18 05:55:00,43.9,36.8,30.22,SSW,210,0.0,0.0,76,0.00,,OVC020,0.00,VWS V14.01,2014-04-18 09:55:00,
2014-04-18 06:00:00,44.1,36.7,30.22,SSW,210,0.0,0.0,75,0.00,,OVC020,0.00,VWS V14.01,2014-04-18 10:00:00,
2014-04-18 06:05:00,44.1,37.0,30.22,SSW,210,0.0,0.0,76,0.00,,OVC020,0.00,VWS V14.01,2014-04-18 10:05:00,
2014-04-18 06:11:00,44.2,36.8,30.22,SSW,210,0.0,0.0,75,0.00,,OVC020,0.00,VWS V14.01,2014-04-18 10:11:00,
2014-04-18 06:16:00,44.1,37.0,30.22,SSW,210,0.0,0.0,76,0.00,,OVC020,0.00,VWS V14.01,2014-04-18 10:16:00,
2014-04-18 06:21:00,44.0,36.6,30.22,SSW,210,0.0,0.0,75,0.00,,OVC020,0.00,VWS V14.01,2014-04-18 10:21:00,
2014-04-18 06:26:00,44.0,37.6,30.23,SSW,210,0.0,0.0,78,0.00,,OVC020,0.00,VWS V14.01,2014-04-18 10:26:00,
2014-04-18 06:31:00,43.9,37.5,30.23,SSW,210,0.0,0.0,78,0.00,,OVC020,0.00,VWS V14.01,2014-04-18 10:31:00,
2014-04-18 06:36:00,43.8,37.7,30.23,SSW,210,0.0,0.0,79,0.00,,OVC020,0.00,VWS V14.01,2014-04-18 10:36:00,
2014-04-18 06:41:00,43.6,37.8,30.23,SSW,210,0.0,0.0,80,0.00,,OVC020,0.00,VWS V14.01,2014-04-18 10:41:00,
2014-04-18 06:46:00,43.5,37.4,30.23,SSW,210,0.0,0.0,79,0.00,,OVC021,0.00,VWS V14.01,2014-04-18 10:46:00,
2014-04-18 06:51:00,43.5,37.4,30.23,SSW,210,0.0,0.0,79,0.00,,OVC021,0.00,VWS V14.01,2014-04-18 10:51:00,
2014-04-18 06:56:00,43.5,37.1,30.23,SSW,210,0.0,0.0,78,0.00,,OVC021,0.00,VWS V14.01,2014-04-18 10:56:00,
2014-04-18 07:01:00,43.4,36.7,30.23,SSW,210,0.0,0.0,77,0.00,,OVC021,0.00,VWS V14.01,2014-04-18 11:01:00,
2014-04-18 07:06:00,43.3,37.6,30.23,SSW,210,0.0,0.0,80,0.00,,OVC021,0.00,VWS V14.01,2014-04-18 11:06:00,
2014-04-18 07:11:00,43.1,37.4,30.23,SSW,210,0.0,0.0,80,0.00,,OVC021,0.00,VWS V14.01,2014-04-18 11:11:00,
2014-04-18 07:17:00,43.0,36.9,30.23,SSW,210,0.0,0.0,79,0.00,,OVC021,0.00,VWS V14.01,2014-04-18 11:17:00,
2014-04-18 07:22:00,42.9,36.8,30.23,SSW,210,0.0,0.0,79,0.00,,OVC021,0.00,VWS V14.01,2014-04-18 11:22:00,
2014-04-18 07:27:00,42.9,37.5,30.23,SSW,210,0.0,0.0,81,0.00,,OVC021,0.00,VWS V14.01,2014-04-18 11:27:00,
2014-04-18 07:32:00,43.1,38.3,30.23,SSW,210,0.0,0.0,83,0.00,,OVC021,0.00,VWS V14.01,2014-04-18 11:32:00,
2014-04-18 07:37:00,43.2,38.4,30.23,SSW,210,0.0,0.0,83,0.00,,OVC021,0.00,VWS V14.01,2014-04-18 11:37:00,
2014-04-18 07:42:00,43.4,39.2,30.23,SSW,210,0.0,0.0,85,0.00,,OVC021,0.00,VWS V14.01,2014-04-18 11:42:00,
2014-04-18 07:47:00,43.6,39.4,30.24,SSW,210,0.0,0.0,85,0.00,,OVC020,0.00,VWS V14.01,2014-04-18 11:47:00,
2014-04-18 07:52:00,43.7,38.6,30.24,SSW,210,0.0,0.0,82,0.00,,OVC020,0.00,VWS V14.01,2014-04-18 11:52:00,
2014-04-18 07:57:00,44.0,38.9,30.24,SSW,210,0.0,0.0,82,0.00,,OVC020,0.00,VWS V14.01,2014-04-18 11:57:00,
2014-04-18 08:03:00,44.4,38.9,30.24,SSW,210,0.0,0.0,81,0.00,,OVC020,0.00,VWS V14.01,2014-04-18 12:03:00,
2014-04-18 08:08:00,44.9,40.1,30.24,SSW,210,0.0,0.0,83,0.00,,OVC020,0.00,VWS V14.01,2014-04-18 12:08:00,
2014-04-18 08:13:00,45.4,41.2,30.24,SSW,210,0.0,0.0,85,0.00,,OVC020,0.00,VWS V14.01,2014-04-18 12:13:00,
2014-04-18 08:18:00,46.0,41.8,30.25,SSW,210,0.0,0.0,85,0.00,,OVC020,0.00,VWS V14.01,2014-04-18 12:18:00,
2014-04-18 08:23:00,46.7,41.8,30.25,SSW,210,0.0,0.0,83,0.00,,OVC020,0.00,VWS V14.01,2014-04-18 12:23:00,
2014-04-18 08:28:00,47.8,42.9,30.24,SSW,210,0.0,0.0,83,0.00,,OVC020,0.00,VWS V14.01,2014-04-18 12:28:00,
2014-04-18 08:33:00,48.9,43.7,30.24,SSW,210,0.0,0.0,82,0.00,,OVC020,0.00,VWS V14.01,2014-04-18 12:33:00,
2014-04-18 08:38:00,49.8,43.6,30.24,SSW,210,0.0,0.0,79,0.00,,OVC020,0.00,VWS V14.01,2014-04-18 12:38:00,
2014-04-18 08:43:00,50.7,43.1,30.24,SSW,210,0.0,0.0,75,0.00,,OVC020,0.00,VWS V14.01,2014-04-18 12:43:00,
2014-04-18 08:48:00,51.8,44.5,30.24,SSW,210,0.0,0.0,76,0.00,,OVC020,0.00,VWS V14.01,2014-04-18 12:48:00,
2014-04-18 08:53:00,53.2,43.3,30.24,SSW,210,0.0,0.0,69,0.00,,OVC020,0.00,VWS V14.01,2014-04-18 12:53:00,
2014-04-18 08:59:00,54.4,43.7,30.24,SSW,210,0.0,0.0,67,0.00,,OVC020,0.00,VWS V14.01,2014-04-18 12:59:00,
2014-04-18 09:04:00,55.3,42.5,30.24,SSW,210,0.0,0.0,62,0.00,,OVC020,0.00,VWS V14.01,2014-04-18 13:04:00,
2014-04-18 09:09:00,56.0,42.8,30.25,SSW,210,0.0,2.0,61,0.00,,OVC020,0.00,VWS V14.01,2014-04-18 13:09:00,
2014-04-18 09:14:00,56.8,45.6,30.25,SSW,210,0.0,2.0,66,0.00,,OVC020,0.00,VWS V14.01,2014-04-18 13:14:00,
2014-04-18 09:19:00,57.8,46.1,30.25,SSW,210,0.0,2.0,65,0.00,,OVC020,0.00,VWS V14.01,2014-04-18 13:19:00,
2014-04-18 09:24:00,58.5,44.2,30.25,SSW,210,0.0,2.0,59,0.00,,OVC020,0.00,VWS V14.01,2014-04-18 13:24:00,
2014-04-18 09:29:00,59.1,45.7,30.25,SSW,210,0.0,2.0,61,0.00,,OVC020,0.00,VWS V14.01,2014-04-18 13:29:00,
2014-04-18 09:34:00,59.8,43.1,30.25,SSW,210,0.0,1.0,54,0.00,,OVC020,0.00,VWS V14.01,2014-04-18 13:34:00,
2014-04-18 09:39:00,60.6,43.9,30.24,SSW,210,1.0,1.0,54,0.00,,OVC020,0.00,VWS V14.01,2014-04-18 13:39:00,
2014-04-18 09:44:00,60.9,43.2,30.24,SSW,210,0.0,2.0,52,0.00,,OVC020,0.00,VWS V14.01,2014-04-18 13:44:00,
2014-04-18 09:50:00,61.4,44.6,30.24,SSW,210,0.0,2.0,54,0.00,,OVC020,0.00,VWS V14.01,2014-04-18 13:50:00,
2014-04-18 09:55:00,61.7,43.4,30.24,WNW,287,1.0,3.0,51,0.00,,OVC020,0.00,VWS V14.01,2014-04-18 13:55:00,
2014-04-18 10:00:00,61.6,42.8,30.24,WNW,287,0.0,3.0,50,0.00,,OVC020,0.00,VWS V14.01,2014-04-18 14:00:00,
2014-04-18 10:05:00,61.8,43.5,30.25,WNW,287,0.0,1.0,51,0.00,,OVC020,0.00,VWS V14.01,2014-04-18 14:05:00,
2014-04-18 10:11:00,62.5,46.1,30.25,WNW,287,0.0,1.0,55,0.00,,OVC020,0.00,VWS V14.01,2014-04-18 14:11:00,
2014-04-18 10:16:00,62.8,43.4,30.25,WNW,287,1.0,2.0,49,0.00,,OVC020,0.00,VWS V14.01,2014-04-18 14:16:00,
2014-04-18 10:21:00,62.8,43.9,30.25,WNW,302,1.0,4.0,50,0.00,,OVC020,0.00,VWS V14.01,2014-04-18 14:21:00,
2014-04-18 10:26:00,62.7,43.3,30.25,WNW,302,0.0,4.0,49,0.00,,OVC020,0.00,VWS V14.01,2014-04-18 14:26:00,
2014-04-18 10:31:00,62.7,41.6,30.25,WNW,302,1.0,1.0,46,0.00,,OVC020,0.00,VWS V14.01,2014-04-18 14:31:00,
2014-04-18 10:36:00,62.6,42.1,30.25,WNW,302,0.0,2.0,47,0.00,,OVC020,0.00,VWS V14.01,2014-04-18 14:36:00,
2014-04-18 10:41:00,62.7,43.3,30.25,WNW,302,0.0,2.0,49,0.00,,OVC020,0.00,VWS V14.01,2014-04-18 14:41:00,
2014-04-18 10:46:00,62.7,42.8,30.24,North,351,0.0,6.0,48,0.00,,OVC021,0.00,VWS V14.01,2014-04-18 14:46:00,
2014-04-18 10:51:00,62.7,43.8,30.24,North,355,2.0,6.0,50,0.00,,OVC021,0.00,VWS V14.01,2014-04-18 14:51:00,
2014-04-18 10:56:00,63.0,45.6,30.24,North,355,0.0,6.0,53,0.00,,OVC021,0.00,VWS V14.01,2014-04-18 14:56:00,
2014-04-18 11:02:00,63.1,44.7,30.24,North,355,0.0,1.0,51,0.00,,OVC021,0.00,VWS V14.01,2014-04-18 15:02:00,
2014-04-18 11:07:00,63.3,41.6,30.24,North,355,0.0,4.0,45,0.00,,OVC021,0.00,VWS V14.01,2014-04-18 15:07:00,
2014-04-18 11:12:00,63.4,41.7,30.24,North,355,0.0,4.0,45,0.00,,OVC021,0.00,VWS V14.01,2014-04-18 15:12:00,
2014-04-18 11:17:00,63.6,44.6,30.24,North,355,2.0,4.0,50,0.00,,OVC021,0.00,VWS V14.01,2014-04-18 15:17:00,
2014-04-18 11:22:00,64.0,43.9,30.24,NNW,346,0.0,4.0,48,0.00,,OVC021,0.00,VWS V14.01,2014-04-18 15:22:00,
2014-04-18 11:27:00,64.4,44.8,30.24,NNW,346,0.0,4.0,49,0.00,,OVC021,0.00,VWS V14.01,2014-04-18 15:27:00,
2014-04-18 11:32:00,64.5,42.1,30.24,NNW,346,1.0,2.0,44,0.00,,OVC021,0.00,VWS V14.01,2014-04-18 15:32:00,
2014-04-18 11:37:00,64.3,44.8,30.24,NNW,346,0.0,2.0,49,0.00,,OVC021,0.00,VWS V14.01,2014-04-18 15:37:00,
2014-04-18 11:42:00,64.3,44.2,30.24,NNW,346,1.0,3.0,48,0.00,,OVC021,0.00,VWS V14.01,2014-04-18 15:42:00,
2014-04-18 11:47:00,64.4,42.0,30.24,NNE,16,1.0,3.0,44,0.00,,OVC022,0.00,VWS V14.01,2014-04-18 15:47:00,
2014-04-18 11:52:00,64.4,43.2,30.24,ENE,63,1.0,3.0,46,0.00,,OVC022,0.00,VWS V14.01,2014-04-18 15:52:00,
2014-04-18 11:58:00,64.9,45.3,30.24,ENE,64,0.0,3.0,49,0.00,,OVC022,0.00,VWS V14.01,2014-04-18 15:58:00,
2014-04-18 12:03:00,65.3,42.2,30.24,ENE,71,2.0,3.0,43,0.00,,OVC022,0.00,VWS V14.01,2014-04-18 16:03:00,
2014-04-18 12:08:00,65.4,44.1,30.24,ENE,60,0.0,3.0,46,0.00,,OVC022,0.00,VWS V14.01,2014-04-18 16:08:00,
2014-04-18 12:13:00,65.7,43.2,30.24,ENE,60,0.0,3.0,44,0.00,,OVC022,0.00,VWS V14.01,2014-04-18 16:13:00,
2014-04-18 12:18:00,66.0,45.2,30.24,NE,42,1.0,4.0,47,0.00,,OVC022,0.00,VWS V14.01,2014-04-18 16:18:00,
2014-04-18 12:23:00,66.3,44.9,30.24,South,176,3.0,5.0,46,0.00,,OVC022,0.00,VWS V14.01,2014-04-18 16:23:00,
2014-04-18 12:28:00,66.1,43.6,30.24,South,181,2.0,5.0,44,0.00,,OVC022,0.00,VWS V14.01,2014-04-18 16:28:00,
2014-04-18 12:33:00,65.8,43.9,30.24,NNW,344,1.0,6.0,45,0.00,,OVC022,0.00,VWS V14.01,2014-04-18 16:33:00,
2014-04-18 12:38:00,66.0,44.7,30.24,NNW,340,0.0,6.0,46,0.00,,OVC022,0.00,VWS V14.01,2014-04-18 16:38:00,
2014-04-18 12:43:00,66.2,43.1,30.23,NNW,341,1.0,6.0,43,0.00,,OVC022,0.00,VWS V14.01,2014-04-18 16:43:00,
2014-04-18 12:49:00,66.3,43.2,30.23,NNW,340,0.0,6.0,43,0.00,,OVC023,0.00,VWS V14.01,2014-04-18 16:49:00,
2014-04-18 12:54:00,66.6,45.2,30.23,NNW,340,0.0,6.0,46,0.00,,OVC023,0.00,VWS V14.01,2014-04-18 16:54:00,
2014-04-18 12:59:00,66.8,43.6,30.23,WNW,297,1.0,6.0,43,0.00,,OVC023,0.00,VWS V14.01,2014-04-18 16:59:00,
2014-04-18 13:04:00,67.0,46.1,30.23,WSW,256,1.0,5.0,47,0.00,,BKN200,0.00,VWS V14.01,2014-04-18 17:04:00,
2014-04-18 13:09:00,67.2,45.7,30.23,NNW,330,5.0,5.0,46,0.00,,BKN200,0.00,VWS V14.01,2014-04-18 17:09:00,
2014-04-18 13:14:00,67.5,46.0,30.23,North,355,3.0,6.0,46,0.00,,BKN200,0.00,VWS V14.01,2014-04-18 17:14:00,
2014-04-18 13:19:00,67.0,43.2,30.23,North,355,4.0,9.0,42,0.00,,BKN200,0.00,VWS V14.01,2014-04-18 17:19:00,
2014-04-18 13:24:00,66.3,43.8,30.22,North,351,0.0,9.0,44,0.00,,BKN200,0.00,VWS V14.01,2014-04-18 17:24:00,